• In Russia
  • List of Countries
  • For 7 days
  • Water Temperature
  • Satellite Maps
  • Weather Map
  • Weather Widgets
  • user-avatar
    Login

    Hourly Weather Wien

    Today, 30 April, Sunday

    Time Temperature Precipitation Wind Pressure Humidity
    00:00 +4°C° 0 mm 1 mps 744 mmHg 83%
    01:00 +3°C° 0 mm 1 mps 744 mmHg 81%
    02:00 +3°C° 0 mm 1 mps 744 mmHg 83%
    03:00 +3°C° 0 mm 1 mps 744 mmHg 84%
    04:00 +2°C° 0 mm 1 mps 745 mmHg 86%
    05:00 +5°C° 0 mm 1 mps 745 mmHg 80%
    06:00 +7°C° 0 mm 1 mps 745 mmHg 74%
    07:00 +9°C° 0 mm 1 mps 745 mmHg 68%
    08:00 +10°C° 0 mm 1 mps 745 mmHg 64%
    09:00 +12°C° 0 mm 2 mps 745 mmHg 60%
    10:00 +13°C° 0 mm 2 mps 745 mmHg 56%
    11:00 +13°C° 0 mm 3 mps 744 mmHg 53%
    12:00 +14°C° 0 mm 3 mps 744 mmHg 51%
    13:00 +14°C° 0 mm 4 mps 744 mmHg 49%
    14:00 +14°C° 0 mm 4 mps 743 mmHg 51%
    15:00 +14°C° 0 mm 4 mps 743 mmHg 53%
    16:00 +14°C° 0 mm 5 mps 743 mmHg 55%
    17:00 +12°C° 0 mm 4 mps 743 mmHg 63%
    18:00 +11°C° 0 mm 4 mps 743 mmHg 70%
    19:00 +9°C° 0 mm 3 mps 743 mmHg 78%
    20:00 +9°C° 0 mm 3 mps 743 mmHg 79%
    21:00 +8°C° 0 mm 3 mps 743 mmHg 80%
    22:00 +7°C° 0 mm 3 mps 743 mmHg 81%
    23:00 +6°C° 0 mm 4 mps 743 mmHg 83%

    Tomorrow, 1 May, Monday

    Time Temperature Precipitation Wind Pressure Humidity
    00:00 +5°C° 0 mm 4 mps 743 mmHg 85%
    01:00 +5°C° 0 mm 4 mps 742 mmHg 87%
    02:00 +5°C° 0 mm 4 mps 742 mmHg 87%
    03:00 +5°C° 0 mm 4 mps 742 mmHg 88%
    04:00 +4°C° 0 mm 4 mps 741 mmHg 88%
    05:00 +5°C° 0 mm 5 mps 741 mmHg 84%
    06:00 +6°C° 0 mm 5 mps 741 mmHg 81%
    07:00 +7°C° 0 mm 6 mps 741 mmHg 77%
    08:00 +9°C° 0 mm 6 mps 741 mmHg 73%
    09:00 +11°C° 0 mm 6 mps 741 mmHg 69%
    10:00 +12°C° 0 mm 7 mps 741 mmHg 65%
    11:00 +14°C° 0 mm 6 mps 741 mmHg 64%
    12:00 +15°C° 0 mm 6 mps 740 mmHg 63%
    13:00 +16°C° 0 mm 6 mps 740 mmHg 62%
    14:00 +16°C° 0 mm 6 mps 740 mmHg 63%
    15:00 +16°C° 0 mm 5 mps 740 mmHg 65%
    16:00 +16°C° 0 mm 5 mps 740 mmHg 67%
    17:00 +14°C° 0 mm 4 mps 740 mmHg 73%
    18:00 +13°C° 0 mm 3 mps 740 mmHg 80%
    19:00 +12°C° 0 mm 3 mps 740 mmHg 86%
    20:00 +11°C° 0 mm 3 mps 741 mmHg 87%
    21:00 +10°C° 0 mm 3 mps 741 mmHg 89%
    22:00 +9°C° 0 mm 3 mps 742 mmHg 90%
    23:00 +9°C° 0.1 mm 3 mps 742 mmHg 88%

    Day after tomorrow, 2 May, Tuesday

    Time Temperature Precipitation Wind Pressure Humidity
    00:00 +7°C° 0.1 mm 4 mps 742 mmHg 86%
    01:00 +6°C° 0.1 mm 4 mps 743 mmHg 84%
    02:00 +6°C° 0.2 mm 4 mps 743 mmHg 86%
    03:00 +6°C° 0.2 mm 4 mps 743 mmHg 87%
    04:00 +7°C° 0.2 mm 3 mps 744 mmHg 88%
    05:00 +7°C° 0.3 mm 3 mps 744 mmHg 87%
    06:00 +7°C° 0.3 mm 3 mps 744 mmHg 87%
    07:00 +8°C° 0.3 mm 3 mps 745 mmHg 87%
    08:00 +9°C° 0 mm 3 mps 745 mmHg 81%
    09:00 +11°C° 0 mm 3 mps 745 mmHg 75%
    10:00 +12°C° 0 mm 3 mps 746 mmHg 69%
    11:00 +14°C° 0 mm 2 mps 746 mmHg 65%
    12:00 +16°C° 0 mm 1 mps 745 mmHg 60%
    13:00 +18°C° 0 mm 1 mps 745 mmHg 56%
    14:00 +18°C° 0 mm 1 mps 745 mmHg 56%
    15:00 +18°C° 0 mm 1 mps 745 mmHg 56%
    16:00 +18°C° 0 mm 1 mps 744 mmHg 56%
    17:00 +15°C° 0 mm 1 mps 744 mmHg 66%
    18:00 +13°C° 0 mm 1 mps 744 mmHg 75%
    19:00 +11°C° 0 mm 1 mps 744 mmHg 85%
    20:00 +10°C° 0 mm 1 mps 744 mmHg 86%
    21:00 +9°C° 0 mm 1 mps 744 mmHg 87%
    22:00 +9°C° 0 mm 1 mps 745 mmHg 88%
    23:00 +9°C° 0 mm 1 mps 744 mmHg 88%

    3 May, Wednesday

    Time Temperature Precipitation Wind Pressure Humidity
    00:00 +9°C° 0 mm 1 mps 744 mmHg 88%
    01:00 +9°C° 0 mm 1 mps 744 mmHg 89%
    02:00 +9°C° 0 mm 1 mps 744 mmHg 89%
    03:00 +8°C° 0 mm 2 mps 744 mmHg 89%
    04:00 +8°C° 0 mm 2 mps 744 mmHg 90%
    05:00 +10°C° 0 mm 2 mps 744 mmHg 87%
    06:00 +12°C° 0 mm 2 mps 743 mmHg 84%
    07:00 +13°C° 0 mm 2 mps 743 mmHg 81%
    08:00 +14°C° 0.1 mm 3 mps 743 mmHg 78%
    09:00 +16°C° 0.1 mm 3 mps 743 mmHg 75%
    10:00 +17°C° 0.1 mm 4 mps 743 mmHg 72%
    11:00 +18°C° 0.1 mm 4 mps 742 mmHg 70%
    12:00 +19°C° 0.1 mm 4 mps 742 mmHg 67%
    13:00 +20°C° 0.1 mm 4 mps 742 mmHg 65%
    14:00 +20°C° 0.4 mm 3 mps 741 mmHg 66%
    15:00 +20°C° 0.4 mm 3 mps 741 mmHg 67%
    16:00 +20°C° 0.4 mm 3 mps 741 mmHg 68%
    17:00 +18°C° 0.6 mm 2 mps 741 mmHg 75%
    18:00 +16°C° 0.6 mm 2 mps 740 mmHg 82%
    19:00 +14°C° 0.6 mm 1 mps 740 mmHg 89%
    20:00 +13°C° 0.1 mm 1 mps 740 mmHg 90%
    21:00 +12°C° 0.1 mm 1 mps 741 mmHg 90%
    22:00 +11°C° 0.1 mm 1 mps 741 mmHg 91%
    23:00 +11°C° 0.1 mm 1 mps 741 mmHg 92%

    4 May, Thursday

    Time Temperature Precipitation Wind Pressure Humidity
    00:00 +10°C° 0.1 mm 1 mps 741 mmHg 92%
    01:00 +10°C° 0.1 mm 1 mps 741 mmHg 93%
    02:00 +10°C° 0 mm 1 mps 741 mmHg 93%
    03:00 +10°C° 0 mm 1 mps 741 mmHg 94%
    04:00 +8°C° 0 mm 2 mps 741 mmHg 94%
    05:00 +10°C° 0 mm 2 mps 741 mmHg 91%
    06:00 +12°C° 0 mm 2 mps 741 mmHg 89%
    07:00 +14°C° 0 mm 2 mps 741 mmHg 86%
    08:00 +15°C° 0 mm 2 mps 741 mmHg 82%
    09:00 +16°C° 0 mm 2 mps 741 mmHg 77%
    10:00 +18°C° 0 mm 2 mps 741 mmHg 72%
    11:00 +18°C° 0.1 mm 2 mps 740 mmHg 70%
    12:00 +20°C° 0.1 mm 1 mps 740 mmHg 67%
    13:00 +21°C° 0.1 mm 1 mps 740 mmHg 65%
    14:00 +20°C° 0.8 mm 1 mps 740 mmHg 66%
    15:00 +20°C° 0.8 mm 1 mps 739 mmHg 68%
    16:00 +20°C° 0.8 mm 1 mps 739 mmHg 70%
    17:00 +18°C° 0.5 mm 1 mps 739 mmHg 77%
    18:00 +15°C° 0.5 mm 1 mps 739 mmHg 84%
    19:00 +14°C° 0.5 mm 1 mps 739 mmHg 91%
    20:00 +13°C° 0.5 mm 1 mps 739 mmHg 91%
    21:00 +13°C° 0.5 mm 1 mps 740 mmHg 92%
    22:00 +13°C° 0.5 mm 1 mps 740 mmHg 93%
    23:00 +12°C° 0.4 mm 1 mps 740 mmHg 93%

    5 May, Friday

    Time Temperature Precipitation Wind Pressure Humidity
    00:00 +12°C° 0.4 mm 2 mps 740 mmHg 94%
    01:00 +12°C° 0.4 mm 2 mps 740 mmHg 94%
    02:00 +12°C° 0.4 mm 2 mps 740 mmHg 95%
    03:00 +10°C° 0.4 mm 2 mps 740 mmHg 95%
    04:00 +10°C° 0.4 mm 3 mps 740 mmHg 96%
    05:00 +10°C° 0.5 mm 3 mps 740 mmHg 94%
    06:00 +11°C° 0.5 mm 3 mps 741 mmHg 93%
    07:00 +12°C° 0.5 mm 4 mps 741 mmHg 91%
    08:00 +12°C° 0.4 mm 4 mps 741 mmHg 89%
    09:00 +13°C° 0.4 mm 5 mps 741 mmHg 87%
    10:00 +13°C° 0.4 mm 5 mps 741 mmHg 85%
    11:00 +14°C° 0.3 mm 6 mps 741 mmHg 82%
    12:00 +15°C° 0.3 mm 6 mps 741 mmHg 80%
    13:00 +15°C° 0.3 mm 7 mps 741 mmHg 77%
    14:00 +15°C° 0.2 mm 7 mps 741 mmHg 78%
    15:00 +14°C° 0.2 mm 6 mps 741 mmHg 79%
    16:00 +14°C° 0.2 mm 6 mps 741 mmHg 81%
    17:00 +13°C° 0.2 mm 6 mps 742 mmHg 83%
    18:00 +13°C° 0.2 mm 5 mps 742 mmHg 86%
    19:00 +12°C° 0.2 mm 5 mps 742 mmHg 88%
    20:00 +11°C° 0 mm 4 mps 742 mmHg 89%
    21:00 +11°C° 0 mm 4 mps 743 mmHg 89%
    22:00 +10°C° 0 mm 4 mps 743 mmHg 89%
    23:00 +10°C° 0 mm 4 mps 743 mmHg 90%
    Show more